Hourly Data Report for February 26, 2017

All times are specified in Local Standard Time (LST). Add 1 hour to adjust for Daylight Saving Time where and when it is observed.

CHATHAM KENT
ONTARIO

42°18'21.000" N
82°04'57.000" W
196.60 m
6131414
YCK

Related Data

No related data is available for this station

Download Data

Hourly Data (February 2017)
Hourly Data Report for February 26, 2017
Temp Definition
°C
Dew Point Temp Definition
°C
Rel Hum Definition
%
Wind Dir Definition
10's deg

Wind Spd Definition
km/h
Visibility Definition
km
Stn Press Definition
kPa
Hmdx Definition


Wind Chill Definition


Weather Definition


TIME
00:00 Legend Double Dagger -3.1 -8.9 65 29 22 16.1 99.06   -9 LegendNANA
01:00 Legend Double Dagger -3.4 -8.8 66 27 18 16.1 99.11   -9 LegendNANA
02:00 Legend Double Dagger -3.2 -8.7 66 28 22 16.1 99.13   -10 LegendNANA
03:00 Legend Double Dagger -3.2 -9.1 64 29 24 16.1 99.18   -10 LegendNANA
04:00 Legend Double Dagger -3.9 -8.2 72 26 28 16.1 99.22   -11 Snow
05:00 Legend Double Dagger -3.9 -7.9 74 27 22 16.1 99.29   -10 Snow
06:00 Legend Double Dagger -4.1 -7.2 79 27 22 16.1 99.34   -11 Snow
07:00 Legend Double Dagger -3.9 -7.2 78 27 18 16.1 99.38   -10 LegendNANA
08:00 Legend Double Dagger -3.5 -6.9 77 27 17 16.1 99.46   -9 LegendNANA
09:00 Legend Double Dagger -2.4 -7.7 67 28 15 16.1 99.50   -7 LegendNANA
10:00 Legend Double Dagger -1.7 -7.4 65 25 18 16.1 99.57   -7 LegendNANA
11:00 Legend Double Dagger -0.5 -7.2 61 24 24 16.1 99.56   -6 LegendNANA
12:00 Legend Double Dagger 0.3 -6.3 61 23 30 16.1 99.53     LegendNANA
13:00 Legend Double Dagger 0.0 -6.2 63 22 39 16.1 99.51   -7 LegendNANA
14:00 Legend Double Dagger 0.7 -5.4 64 22 35 16.1 99.46     LegendNANA
15:00 Legend Double Dagger 1.8 -3.8 67 21 37 16.1 99.39     LegendNANA
16:00 Legend Double Dagger 2.1 -3.6 66 22 32 16.1 99.34     LegendNANA
17:00 Legend Double Dagger 2.5 -3.3 66 21 32 16.1 99.28     LegendNANA
18:00 Legend Double Dagger 2.0 -2.9 70 21 32 16.1 99.30     LegendNANA
19:00 Legend Double Dagger 2.0 -2.7 71 22 32 16.1 99.31     LegendNANA
20:00 Legend Double Dagger 2.5 -3.5 65 22 32 16.1 99.36     LegendNANA
21:00 Legend Double Dagger 2.2 -2.9 69 22 32 16.1 99.39     LegendNANA
22:00 Legend Double Dagger 2.1 -2.8 70 22 34 16.1 99.44     LegendNANA
23:00 Legend Double Dagger 2.0 -2.5 72 22 34 16.1 99.48     LegendNANA

Notes on Data Quality.

Legend

  • E = Estimated
  • M = Missing
  • NA = Not Available
  • ‡ = Partner data that is not subject to review by the National Climate Archives
Date modified: